Thunder radar more information blitzortung!


Radar de pluja more information rain snow radar


Visita la nostra xarxa de llocs de meteo:

Template documentation
and downloads

And another site



No particular awareness of the weather is required.    There are no Weather-warnings

Pagina Historial Weather Underground text

Diari Resum January 9, 2016 Unitats:  Mètric    Imperial   Tant
« Previous Dia
SegĂźent Dia »
Diari Setmana Mensual Anual Personalitzada
  Maxima: Minima: Media:
Temperatura: -17.8 °C -11.7 °C -9.6 °C
Punt de rosada: -17.8 °C -15.8 °C -14.5 °C
Humitat: Humidity % 49 % 55 %
Wind Speed: 0 km/h 0 km/h 7.6 km/h
RĂ fegues de vent: 0 km/h - -
Vent:- - WSW
Pression baro: 0 hPa 34029.3 hPa -
Precipitacions: 0 mm    
Historical Graphs
 
 
Dades de taula per January 9, 2016
Temps Temperatura Punt de rosada Pression baro Vent Wind Speed RĂ fegues de vent Humitat Rainfall Rate (Hourly)
-17.8 °C -17.8 °C 0 hPa Calm     Humidity % 0 mm
12:00 -8.2 °C -13.2 °C 34130.9 hPa SW 2.6 km/h 12.9 km/h 56 % 0 mm
12:05 -8.2 °C -13.2 °C 34130.9 hPa WNW 11.9 km/h 11.9 km/h 56 % 0 mm
12:10 -8.2 °C -13.2 °C 34097 hPa SE 6.8 km/h 6.8 km/h 56 % 0 mm
12:15 -8.3 °C -13.4 °C 34097 hPa WSW 15 km/h 15 km/h 55 % 0 mm
12:20 -8.4 °C -13.3 °C 34097 hPa WSW 6 km/h 6.8 km/h 56 % 0 mm
12:25 -8.5 °C -13.4 °C 34097 hPa NW 9.8 km/h 9.8 km/h 56 % 0 mm
12:30 -8.6 °C -13.5 °C 34097 hPa West 11.9 km/h 11.9 km/h 56 % 0 mm
12:35 -8.7 °C -13.7 °C 34097 hPa SW 11.9 km/h 11.9 km/h 55 % 0 mm
12:40 -8.7 °C -13.6 °C 34097 hPa WNW 9 km/h 9 km/h 56 % 0 mm
12:45 -8.7 °C -13.6 °C 34097 hPa SW 11.9 km/h 11.9 km/h 56 % 0 mm
12:50 -8.7 °C -13.6 °C 34097 hPa West 15 km/h 15 km/h 56 % 0 mm
12:55 -8.7 °C -13.7 °C 34097 hPa WSW 17.9 km/h 17.9 km/h 55 % 0 mm
13:00 -8.6 °C -13.7 °C 34097 hPa SW 7.7 km/h 15.6 km/h 55 % 0 mm
13:05 -8.6 °C -13.6 °C 34097 hPa WSW 7.7 km/h 12.9 km/h 55 % 0 mm
13:10 -8.4 °C -13.4 °C 34063.2 hPa WSW 7.7 km/h 15.6 km/h 55 % 0 mm
13:15 -8.2 °C -13.4 °C 34063.2 hPa WNW 15 km/h 15 km/h 54 % 0 mm
13:20 -8.2 °C -13.4 °C 34063.2 hPa WSW 7.7 km/h 20.8 km/h 54 % 0 mm
13:25 -8.4 °C -13.4 °C 34063.2 hPa WSW 5.1 km/h 12.9 km/h 55 % 0 mm
13:30 -8.5 °C -13.7 °C 34063.2 hPa SW 20.9 km/h 20.9 km/h 54 % 0 mm
13:35 -8.7 °C -13.7 °C 34063.2 hPa WSW 12.9 km/h 25.9 km/h 55 % 0 mm
13:40 -8.7 °C -13.7 °C 34063.2 hPa WSW 7.7 km/h 15.6 km/h 55 % 0 mm
13:45 -8.7 °C -13.8 °C 34063.2 hPa WSW 7.7 km/h 15.6 km/h 55 % 0 mm
13:50 -8.8 °C -13.7 °C 34063.2 hPa West 12.9 km/h 20.8 km/h 56 % 0 mm
13:55 -8.9 °C -13.8 °C 34063.2 hPa SSW 18.3 km/h 18.3 km/h 56 % 0 mm
14:00 -8.8 °C -13.6 °C 34063.2 hPa SW 9 km/h 9 km/h 57 % 0 mm
14:05 -8.8 °C -13.6 °C 34063.2 hPa West 9 km/h 9 km/h 57 % 0 mm
14:10 -8.8 °C -13.5 °C 34063.2 hPa SSW 6 km/h 6 km/h 57 % 0 mm
14:20 -8.7 °C -13.4 °C 34063.2 hPa SW 9 km/h 9 km/h 57 % 0 mm
14:25 -8.7 °C -13.4 °C 34063.2 hPa West 10.3 km/h 10.3 km/h 57 % 0 mm
14:30 -8.7 °C -13.4 °C 34063.2 hPa WSW 5.1 km/h 12.9 km/h 57 % 0 mm
14:35 -8.4 °C -13.4 °C 34063.2 hPa West 15 km/h 15 km/h 56 % 0 mm
14:40 -8.4 °C -13.3 °C 34063.2 hPa WSW 2.6 km/h 15.6 km/h 56 % 0 mm
14:45 -8.4 °C -13.4 °C 34063.2 hPa WSW 5.1 km/h 15.6 km/h 56 % 0 mm
14:50 -8.5 °C -13.6 °C 34063.2 hPa West 5.1 km/h 15.6 km/h 55 % 0 mm
14:55 -8.4 °C -13.5 °C 34029.3 hPa West 5.1 km/h 15.6 km/h 55 % 0 mm
15:00 -8.3 °C -13.5 °C 34029.3 hPa West 5.1 km/h 15.6 km/h 54 % 0 mm
15:05 -8.2 °C -13.7 °C 34029.3 hPa WNW 12.9 km/h 23.3 km/h 52 % 0 mm
15:10 -8.1 °C -13.7 °C 34063.2 hPa West 7.7 km/h 31.1 km/h 52 % 0 mm
15:15 -7.9 °C -13.5 °C 34063.2 hPa NNW 6 km/h 6 km/h 52 % 0 mm
15:20 -7.8 °C -13.4 °C 34063.2 hPa WSW 11.9 km/h 11.9 km/h 52 % 0 mm
15:25 -7.7 °C -13.4 °C 34063.2 hPa ENE 9 km/h 9 km/h 51 % 0 mm
15:30 -7.8 °C -13.5 °C 34063.2 hPa WSW 15 km/h 15 km/h 51 % 0 mm
15:35 -7.7 °C -13.6 °C 34063.2 hPa WSW 15 km/h 15 km/h 50 % 0 mm
15:40 -7.7 °C -13.6 °C 34063.2 hPa WSW 20.9 km/h 20.9 km/h 50 % 0 mm
15:45 -7.7 °C -13.6 °C 34063.2 hPa SW 15 km/h 15 km/h 50 % 0 mm
15:50 -7.7 °C -13.6 °C 34063.2 hPa WSW 12.9 km/h 20.8 km/h 50 % 0 mm
15:55 -7.7 °C -13.6 °C 34063.2 hPa WSW 7.7 km/h 15.6 km/h 50 % 0 mm
16:00 -7.6 °C -13.5 °C 34063.2 hPa West 5.1 km/h 10.3 km/h 50 % 0 mm
16:05 -7.7 °C -13.7 °C 34063.2 hPa SW 17.9 km/h 17.9 km/h 49 % 0 mm
16:10 -7.8 °C -13.8 °C 34029.3 hPa WSW 15 km/h 15 km/h 49 % 0 mm
16:15 -7.7 °C -13.7 °C 34029.3 hPa West 11.9 km/h 11.9 km/h 49 % 0 mm
16:20 -7.7 °C -13.8 °C 34029.3 hPa WSW 10.3 km/h 10.3 km/h 49 % 0 mm
16:25 -7.7 °C -13.8 °C 34063.2 hPa SSW 9 km/h 9 km/h 49 % 0 mm
16:30 -7.9 °C -13.9 °C 34063.2 hPa WNW 15 km/h 15 km/h 49 % 0 mm
16:35 -8 °C -14 °C 34063.2 hPa WSW 15 km/h 15 km/h 49 % 0 mm
16:40 -8.2 °C -14.2 °C 34086.9 hPa WSW 5.1 km/h 20.8 km/h 49 % 0 mm
16:45 -8.2 °C -14.2 °C 34097 hPa WSW 5.1 km/h 25.9 km/h 49 % 0 mm
16:50 -8.4 °C -14.2 °C 34097 hPa WSW 7.7 km/h 10.3 km/h 50 % 0 mm
16:55 -8.6 °C -14.4 °C 34063.2 hPa WSW 7.7 km/h 15.6 km/h 50 % 0 mm
17:00 -8.7 °C -14.3 °C 34063.2 hPa WSW 7.7 km/h 15.6 km/h 51 % 0 mm
17:05 -8.7 °C -14.3 °C 34063.2 hPa West 5.1 km/h 15.6 km/h 51 % 0 mm
17:10 -8.8 °C -14.4 °C 34029.3 hPa WSW 5.1 km/h 7.7 km/h 51 % 0 mm
17:15 -8.8 °C -14.5 °C 34029.3 hPa WSW 9 km/h 9 km/h 51 % 0 mm
17:20 -8.9 °C -14.6 °C 34029.3 hPa WSW 8.5 km/h 8.5 km/h 51 % 0 mm
17:25 -8.9 °C -14.6 °C 34097 hPa SW 14.5 km/h 14.5 km/h 51 % 0 mm
17:30 -9.1 °C -14.7 °C 34097 hPa WSW 11.9 km/h 11.9 km/h 51 % 0 mm
17:35 -9.2 °C -14.8 °C 34097 hPa WSW 6 km/h 6 km/h 51 % 0 mm
17:40 -9.3 °C -14.9 °C 34097 hPa WSW 6.8 km/h 6.8 km/h 51 % 0 mm
17:45 -9.4 °C -14.8 °C 34097 hPa WSW 2.6 km/h 7.7 km/h 52 % 0 mm
17:50 -9.5 °C -14.9 °C 34097 hPa WSW 7.7 km/h 10.3 km/h 52 % 0 mm
17:55 -9.5 °C -14.9 °C 34097 hPa WSW 5.1 km/h 15.6 km/h 52 % 0 mm
18:00 -9.6 °C -15 °C 34097 hPa WSW 5.1 km/h 12.9 km/h 52 % 0 mm
18:05 -9.6 °C -15.1 °C 34097 hPa West 5.1 km/h 15.6 km/h 52 % 0 mm
18:10 -9.7 °C -14.9 °C 34097 hPa WSW 5.1 km/h 7.7 km/h 53 % 0 mm
18:15 -9.8 °C -15.1 °C 34097 hPa WSW 6.8 km/h 6.8 km/h 53 % 0 mm
18:20 -9.8 °C -15.1 °C 34097 hPa WNW 9.3 km/h 9.3 km/h 53 % 0 mm
18:25 -9.8 °C -15.1 °C 34097 hPa WSW 9 km/h 9 km/h 53 % 0 mm
18:30 -9.9 °C -15.1 °C 34097 hPa WSW 6 km/h 6 km/h 54 % 0 mm
18:35 -9.9 °C -15.1 °C 34097 hPa West 11.9 km/h 11.9 km/h 54 % 0 mm
18:40 -10 °C -15.1 °C 34097 hPa SW 8 km/h 8 km/h 54 % 0 mm
18:45 -10.1 °C -15.2 °C 34097 hPa WSW 5.1 km/h 7.7 km/h 54 % 0 mm
18:50 -10.1 °C -15.2 °C 34097 hPa West 11.9 km/h 11.9 km/h 54 % 0 mm
18:55 -10.1 °C -15 °C 34130.9 hPa WSW 9 km/h 9 km/h 55 % 0 mm
19:00 -10.1 °C -15.1 °C 34130.9 hPa WSW 7.7 km/h 12.9 km/h 55 % 0 mm
19:05 -10.1 °C -15.1 °C 34130.9 hPa WSW 5.1 km/h 10.3 km/h 55 % 0 mm
19:10 -10.2 °C -15.1 °C 34097 hPa WSW 11.9 km/h 11.9 km/h 55 % 0 mm
19:15 -10.2 °C -15.2 °C 34097 hPa SW 15 km/h 15 km/h 55 % 0 mm
19:20 -10.3 °C -15.1 °C 34097 hPa SW 5.1 km/h 15.6 km/h 56 % 0 mm
19:25 -10.3 °C -15.1 °C 34120.7 hPa WSW 5.1 km/h 7.7 km/h 56 % 0 mm
19:30 -10.3 °C -15.1 °C 34130.9 hPa WSW 7.6 km/h 9.3 km/h 56 % 0 mm
19:35 -10.3 °C -15.1 °C 34130.9 hPa WSW 5.1 km/h 7.7 km/h 56 % 0 mm
19:40 -10.4 °C -15.2 °C 34130.9 hPa SW 2.6 km/h 7.7 km/h 56 % 0 mm
19:45 -10.4 °C -15.2 °C 34130.9 hPa SW 2.6 km/h 7.7 km/h 56 % 0 mm
19:50 -10.5 °C -15.3 °C 34130.9 hPa Calm   5.1 km/h 56 % 0 mm
19:55 -10.6 °C -15.3 °C 34130.9 hPa SW 2.6 km/h 5.1 km/h 56 % 0 mm
20:00 -10.7 °C -15.3 °C 34130.9 hPa SW 6 km/h 6 km/h 57 % 0 mm
20:05 -10.7 °C -15.3 °C 34130.9 hPa WSW 3.1 km/h 3.7 km/h 57 % 0 mm
20:10 -10.7 °C -15.3 °C 34130.9 hPa SW 5.1 km/h 5.1 km/h 57 % 0 mm
20:15 -10.7 °C -15.3 °C 34130.9 hPa SW 6 km/h 6 km/h 57 % 0 mm
20:20 -10.7 °C -15.3 °C 34130.9 hPa WSW 6 km/h 6 km/h 57 % 0 mm
20:25 -10.8 °C -15.2 °C 34130.9 hPa Calm     58 % 0 mm
20:30 -10.8 °C -15.3 °C 34130.9 hPa Calm     58 % 0 mm
20:35 -10.9 °C -15.4 °C 34130.9 hPa Calm     58 % 0 mm
20:40 -10.9 °C -15.3 °C 34130.9 hPa Calm     59 % 0 mm
20:45 -11 °C -15.3 °C 34130.9 hPa Calm     59 % 0 mm
20:50 -11 °C -15.3 °C 34130.9 hPa Calm     59 % 0 mm
20:55 -11 °C -15.3 °C 34130.9 hPa WNW 3.1 km/h   59 % 0 mm
21:00 -11 °C -15.2 °C 34130.9 hPa NNW 3.1 km/h 3.1 km/h 60 % 0 mm
21:05 -11 °C -15.3 °C 34130.9 hPa NNW 3.1 km/h   59 % 0 mm
21:10 -11 °C -15.2 °C 34130.9 hPa Calm     60 % 0 mm
21:15 -11 °C -15.2 °C 34130.9 hPa Calm     60 % 0 mm
21:20 -11 °C -15.2 °C 34130.9 hPa NW 3.1 km/h 3.1 km/h 60 % 0 mm
21:25 -11.1 °C -15.4 °C 34130.9 hPa WNW 3.1 km/h   59 % 0 mm
21:30 -11.2 °C -15.4 °C 34130.9 hPa NW 3.1 km/h   60 % 0 mm
21:35 -11.3 °C -15.6 °C 34130.9 hPa West 4.2 km/h   59 % 0 mm
21:40 -11.4 °C -15.6 °C 34130.9 hPa SW 3.1 km/h 3.7 km/h 60 % 0 mm
21:45 -11.6 °C -15.8 °C 34130.9 hPa WSW 2.6 km/h 5.1 km/h 60 % 0 mm
21:50 -11.7 °C -15.7 °C 34130.9 hPa Calm     61 % 0 mm
21:55 -11.6 °C -15.7 °C 34164.7 hPa NW 4.2 km/h 4.2 km/h 61 % 0 mm
22:00 -11.6 °C -15.6 °C 34164.7 hPa Calm     61 % 0 mm
22:05 -11.5 °C -15.5 °C 34164.7 hPa Calm   2.6 km/h 61 % 0 mm
22:10 -11.5 °C -15.5 °C 34130.9 hPa West 3.1 km/h   61 % 0 mm
22:15 -11.4 °C -15.4 °C 34130.9 hPa Calm   5.1 km/h 61 % 0 mm
22:20 -11.4 °C -15.4 °C 34130.9 hPa WSW 5.1 km/h 5.1 km/h 61 % 0 mm
22:25 -11.6 °C -15.6 °C 34154.6 hPa Calm   5.1 km/h 61 % 0 mm
22:30 -11.5 °C -15.5 °C 34164.7 hPa West 5.1 km/h 7.7 km/h 61 % 0 mm
22:35 -11.2 °C -15.3 °C 34164.7 hPa WSW 5.1 km/h 7.7 km/h 61 % 0 mm
22:40 -11.2 °C -15.2 °C 34130.9 hPa WSW 5.1 km/h 7.7 km/h 61 % 0 mm
22:45 -11.2 °C -15.3 °C 34130.9 hPa WSW 6.3 km/h 8.5 km/h 60 % 0 mm
22:50 -11.1 °C -15.3 °C 34130.9 hPa West 9.3 km/h 9.3 km/h 60 % 0 mm
22:55 -11.1 °C -15.2 °C 34130.9 hPa WSW 11.1 km/h 11.1 km/h 60 % 0 mm
23:00 -10.9 °C -15.1 °C 34130.9 hPa WSW 11.9 km/h 11.9 km/h 60 % 0 mm
23:05 -10.7 °C -15.1 °C 34130.9 hPa West 17.9 km/h 17.9 km/h 59 % 0 mm
23:10 -10.7 °C -15.1 °C 34130.9 hPa WSW 7.7 km/h 12.9 km/h 59 % 0 mm
23:15 -10.6 °C -15.1 °C 34130.9 hPa West 7.7 km/h 12.9 km/h 58 % 0 mm
23:20 -10.6 °C -15.1 °C 34130.9 hPa WSW 20.9 km/h 20.9 km/h 58 % 0 mm
23:25 -10.6 °C -15.2 °C 34164.7 hPa WSW 7.7 km/h 15.6 km/h 57 % 0 mm
Meteo Sesrovires
Elogis d' Weather Underground - 4 mb

Guio original per  Jim McMurry - jmcmurry@mwt.net Adaptat per a la plantilla per  Wim van der Kuil - Leuven-Template.eu

Trobareu la nostra informacio del temps tambe a:

Weather Underground

AWEKAS